Regional Weather Roundup
Issued by NWS

Home | Current Version | Previous Version | Graphics & Text | Print | Product List | Glossary On
Versions: 1 2 3 4 5 6 7 8 9 10 11 12 13 14 15 16 17 18 19 20 21 22 23 24 25 26 27 28 29 30 31 32 33 34 35 36 37 38 39 40 41 42 43 44 45 46 47 48 49 50
318
ASUS43 KIND 200259
RWRIN

WEATHER ROUNDUP FOR INDIANA
NATIONAL WEATHER SERVICE INDIANAPOLIS IN
1100 PM EDT SAT AUG 19 2017

NOTE: "FAIR" INDICATES FEW OR NO CLOUDS BELOW 12,000 FEET WITH NO
SIGNIFICANT WEATHER AND/OR OBSTRUCTIONS TO VISIBILITY.

* - STATION DOES NOT REPORT WEATHER SUCH AS PRECIPITATION OR FOG.

+ - STATION NOT QUALITY CONTROLLED BY THE NATIONAL WEATHER SERVICE.
    USE DATA WITH CAUTION...ESPECIALLY DEWPOINT AND RELATIVE
    HUMIDITY OBSERVATIONS.

INZ001>003-010>013-019-020-200400-
NORTHWEST INDIANA

CITY           SKY/WX    TMP DP  RH WIND       PRES   REMARKS
GARY /AIRPORT/ CLEAR     63  57  82 VRB3      29.98R
MICHIGAN CITY+ CLEAR     61  61 100 CALM      30.00R
MONTICELLO +   CLEAR     67  63  86 CALM      29.98S

$$

LMZ046-743>745-200400-
SOUTHERN LAKE MICHIGAN

STATION/POSITION TIME  TEMP    WIND        PRES    WAVE
                       AIR SEA DIR/SP/G            HT
                 (UTC) (F)     (DEG/KT/KT) (MB)    (FT)
BURNS HARBOR     0240   74     100/  6/  8 1015.6S
MICHIGAN CITY    0230   70     120/  4/  4   N/A
5NW MICH CITY    0250   73 75  130/  6/  8   N/A     1

$$

INZ004-005-014>016-021>024-200400-
NORTH CENTRAL INDIANA

CITY           SKY/WX    TMP DP  RH WIND       PRES   REMARKS
GOSHEN         CLEAR     65  58  78 SE3       30.00R
PERU/GRISSOM   CLEAR     67  63  87 E3        29.99R
SOUTH BEND     CLEAR     61  60  97 N3        30.01R

$$

INZ006>009-017-018-025>027-200400-
NORTHEAST INDIANA

CITY           SKY/WX    TMP DP  RH WIND       PRES   REMARKS
FORT WAYNE     CLEAR     66  60  81 CALM      30.01R

$$

INZ028-029-035-036-043>045-051>053-200400-
WEST CENTRAL INDIANA

CITY           SKY/WX    TMP DP  RH WIND       PRES   REMARKS
LAFAYETTE      CLEAR     68  64  87 CALM      29.98R
TERRE HAUTE    CLEAR     70  67  90 NE5       29.98R

$$

INZ030>032-037>040-046>048-054>057-064-065-200400-
CENTRAL INDIANA

CITY           SKY/WX    TMP DP  RH WIND       PRES   REMARKS
GREENWOOD *+   PTCLDY    74  62  66 E3        30.00R
INDIANAPOLIS   PTCLDY    76  63  64 NE7       29.99R
-EAGLE CREEK   PTCLDY    76  62  62 NE5       29.99R
KOKOMO +       CLEAR     68  63  84 CALM      30.01
MT COMFORT *+  CLEAR     66  63  88 NE3       30.00R
SHELBYVILLE    MOCLDY    73  65  75 NE7       29.99R

$$

INZ033-034-041-042-049-050-058-059-200400-
EAST CENTRAL INDIANA

CITY           SKY/WX    TMP DP  RH WIND       PRES   REMARKS
MUNCIE         CLEAR     66  63  90 CALM      30.01R
RICHMOND +     CLEAR     64  63  94 NE5       30.03R

$$

INZ060-061-067>069-081>083-085>088-200400-
SOUTHWEST INDIANA

CITY           SKY/WX    TMP DP  RH WIND       PRES   REMARKS
EVANSVILLE     CLEAR     74  70  87 CALM      29.98R
HUNTINGBURG +  CLEAR     71  69  93 SE5       29.98R

$$

INZ062-063-066-070>080-084-089>092-200400-
SOUTH CENTRAL AND SOUTHEAST INDIANA

CITY           SKY/WX    TMP DP  RH WIND       PRES   REMARKS
BLOOMINGTON    PTCLDY    72  67  84 CALM      29.99R
MADISON *+     CLOUDY    72  68  88 CALM      30.01R
SEYMOUR +      CLOUDY    75  70  83 CALM      29.98R

$$





USA.gov is the U.S. government's official web portal to all federal, state and local government web resources and services.